Location: Carrières
(48.9495°N, 2.0407°E)
Time: 23:54:43
(UTC+00:00)

S-56A Canister/Altair - Visible Passes

Search period start: 16 April 2024 00:00
Search period end: 26 April 2024 00:00
Orbit: 639 x 2488 km, 38.9° (Epoch: 16 April)

Date Brightness Start Highest point End Pass type
(mag) Time Alt. Az. Time Alt. Az. Time Alt. Az.
16 Apr 9.3 19:07:23 10° SW 19:14:06 42° SSE 19:23:54 10° ESE visible
16 Apr 9.5 21:10:00 10° WSW 21:18:06 44° S 21:22:45 32° SE visible
16 Apr 10.3 23:13:54 10° W 23:20:06 27° SW 23:20:06 27° SW visible
17 Apr 9.4 20:36:47 10° WSW 20:44:24 44° S 20:50:43 24° SE visible
17 Apr 10.1 22:40:24 10° W 22:48:02 30° SSW 22:48:02 30° SSW visible
18 Apr 9.4 20:03:38 10° WSW 20:10:44 43° S 20:18:40 17° ESE visible
18 Apr 10.0 22:07:00 10° W 22:14:54 32° SSW 22:15:59 31° SSW visible
19 Apr 9.3 19:30:32 10° WSW 19:37:09 42° S 19:46:39 10° ESE visible
19 Apr 9.9 21:33:39 10° W 21:41:09 32° SSW 21:43:59 29° S visible
19 Apr 10.9 23:39:29 10° WSW 23:41:18 13° WSW 23:41:18 13° WSW visible
20 Apr 9.8 21:00:23 10° WSW 21:07:28 33° SSW 21:11:59 24° SSE visible
20 Apr 10.7 23:05:35 10° WSW 23:09:20 16° SW 23:09:20 16° SW visible
21 Apr 9.7 20:27:10 10° WSW 20:33:50 33° SSW 20:40:02 19° SSE visible
21 Apr 10.5 22:31:52 10° WSW 22:37:22 18° SW 22:37:22 18° SW visible
22 Apr 9.6 19:54:00 10° WSW 20:00:15 34° SSW 20:08:06 13° SE visible
22 Apr 10.4 21:58:17 10° WSW 22:04:05 19° SSW 22:05:27 18° SSW visible
23 Apr 9.5 19:20:52 10° WSW 19:26:43 33° S 19:34:59 10° SE visible
23 Apr 10.3 21:24:49 10° WSW 21:30:27 20° SSW 21:33:33 17° S visible
24 Apr 10.2 20:51:26 10° WSW 20:56:52 21° SSW 21:01:42 14° S visible
25 Apr 10.1 20:18:07 10° WSW 20:23:19 21° SSW 20:29:54 10° SSE visible
